Regional Weather Roundup
Issued by NWS

Home | Current Version | Previous Version | Graphics & Text | Print | Product List | Glossary On
Versions: 1 2 3 4 5 6 7 8 9 10 11 12 13 14 15 16 17 18 19 20 21 22 23 24 25 26 27 28 29 30 31 32 33 34 35 36 37 38 39 40 41 42 43 44 45 46 47 48 49 50
000
ASUS43 KBIS 112320
RWRND

NORTH DAKOTA REGIONAL WEATHER ROUNDUP
NATIONAL WEATHER SERVICE BISMARCK ND
600 PM CDT FRI JUL 11 2014

NOTE: "FAIR" INDICATES FEW OR NO CLOUDS BELOW 12,000 FEET WITH NO
SIGNIFICANT WEATHER AND/OR OBSTRUCTIONS TO VISIBILITY.


NDZ001>003-009>011-017-120000-
NORTHWEST NORTH DAKOTA

CITY           SKY/WX    TMP DP  RH WIND       PRES   REMARKS
WILLISTON      SUNNY     80  49  33 N10G18    30.07F
MINOT          SUNNY     75  53  46 NW15      30.04R
MINOT AFB      SUNNY     75  54  48 NW18G26   30.03S
$$

NDZ018>021-031>035-040>046-120000-
SOUTHWEST NORTH DAKOTA

CITY           SKY/WX    TMP DP  RH WIND       PRES   REMARKS
BISMARCK       SUNNY     83  56  39 NW9       30.03R
DICKINSON      MOSUNNY   76  55  48 NE10      30.07S
GARRISON         N/A     78  59  51 NW12      30.05S
HETTINGER ARPT MOSUNNY   78  60  53 NE12      30.09S
$$

NDZ004>008-012>016-024-026-027-054-120000-
NORTHEAST NORTH DAKOTA

CITY           SKY/WX    TMP DP  RH WIND       PRES   REMARKS
GRAND FORKS    MOSUNNY   84  56  38 NW17G24   29.91F
GRND FRKS AFB  SUNNY     83  59  43 W15       29.94S
DEVILS LAKE    SUNNY     79  52  38 NW16G22   29.98R
$$

NDZ022-023-025-028>030-036>039-047>053-120000-
SOUTHEAST NORTH DAKOTA

CITY           SKY/WX    TMP DP  RH WIND       PRES   REMARKS
FARGO          SUNNY     86  62  44 N10       29.92S
JAMESTOWN      SUNNY     83  53  35 N7        29.98S
$$



USA.gov is the U.S. government's official web portal to all federal, state and local government web resources and services.